Terug naar catalogus

NOAA 16 DEB

ActiefSSO
NORAD 41211·DEBRIS·🇺🇸 United States

Gelanceerd Sep 21, 2000 vanaf Vandenberg Space Force Base

Loading…

Volgende Passages (komende 24 uur)

TLE

VersSource: Space-Track

Epoch: Sep 14, 2026, 08:44 UTC

1 41211U 00055DQ  26257.36393734  .00001653  00000-0  76995-3 0  9993
2 41211  98.6713 305.6949 0025294 209.7754 150.1985 14.21691437554985

Volg NOAA 16 DEB in realtime met AllMySat

Download on the App Store